Location: Kalisz
(51.7636°N, 18.0893°E)
Time: 11:39:33
(UTC+01:00)

ISS - Pass Details

Date: 31 January 2019
Orbit: 403 x 411 km, 51.6° (Epoch: 18 February)

Event Time Altitude Azimuth Distance (km) Brightness Sun altitude
Rises 18:10:48 0° 267° (W) 2,334 1.9 -15.0°
Reaches altitude 10° 18:12:53 10° 268° (W) 1,475 0.4 -15.3°
Maximum altitude 18:16:12 90° 12° (NNE) 416 -3.9 -15.8°
Enters shadow 18:17:15 41° 88° (E) 612 -3.5 -16.0°
